KC0NAX Weather Reports


time (UTC)temp
C
wind
direction
speed
KPH
gust
KPH
rain 1hr
cm
rain 24hr
cm
rain mn
cm
humidity
%
barometer
mb
20260906174349 37 179 3.2 6.4 0.00 0.00 0.00 36 1015.4
20260906173848 37 340 6.4 9.7 0.00 0.00 0.00 36 1015.4
20260906173349 37 67 3.2 6.4 0.00 0.00 0.00 37 1015.5
20260906172848 36 238 3.2 6.4 0.00 0.00 0.00 37 1015.6
20260906172348 36 57 1.6 3.2 0.00 0.00 0.00 38 1015.6
20260906171848 36 98 4.8 6.4 0.00 0.00 0.00 39 1015.8
20260906171348 36 104 4.8 6.4 0.00 0.00 0.00 38 1015.8
20260906170848 37 83 8.0 9.7 0.00 0.00 0.00 38 1015.9
20260906170348 37 139 8.0 12.9 0.00 0.00 0.00 38 1015.8
20260906165848 37 119 4.8 6.4 0.00 0.00 0.00 39 1015.9
20260906165348 37 35 3.2 4.8 0.00 0.00 0.00 38 1016.0
20260906164852 36 82 3.2 8.0 0.00 0.00 0.00 40 1016.0
20260906164349 36 333 1.6 4.8 0.00 0.00 0.00 41 1016.1
20260906163849 36 70 6.4 9.7 0.00 0.00 0.00 42 1016.2
20260906163348 36 162 3.2 4.8 0.00 0.00 0.00 42 1016.2
20260906162848 36 103 4.8 9.7 0.00 0.00 0.00 43 1016.2
20260906162348 36 67 4.8 8.0 0.00 0.00 0.00 43 1016.2
20260906161848 36 50 0.0 1.6 0.00 0.00 0.00 43 1016.3
20260906161348 35 141 6.4 9.7 0.00 0.00 0.00 44 1016.3
20260906160848 35 78 3.2 6.4 0.00 0.00 0.00 44 1016.3
20260906160350 35 69 1.6 3.2 0.00 0.00 0.00 44 1016.4
20260906155848 35 105 4.8 6.4 0.00 0.00 0.00 44 1016.4
20260906155348 35 137 8.0 9.7 0.00 0.00 0.00 45 1016.3
20260906154848 35 62 6.4 8.0 0.00 0.00 0.00 44 1016.3
20260906154348 35 88 6.4 8.0 0.00 0.00 0.00 45 1016.3
20260906153848 34 92 3.2 8.0 0.00 0.00 0.00 46 1016.3
20260906153348 34 57 1.6 3.2 0.00 0.00 0.00 46 1016.2
20260906152848 33 82 1.6 6.4 0.00 0.00 0.00 48 1016.2
20260906152348 33 360 3.2 4.8 0.00 0.00 0.00 48 1016.1
20260906151848 33 76 3.2 4.8 0.00 0.00 0.00 48 1016.2
20260906151349 32 166 1.6 3.2 0.00 0.00 0.00 50 1016.2
20260906150848 32 96 3.2 4.8 0.00 0.00 0.00 50 1016.2
20260906150349 32 80 1.6 3.2 0.00 0.00 0.00 51 1016.2
20260906145848 31 87 3.2 4.8 0.00 0.00 0.00 53 1016.2
20260906145349 31 166 4.8 6.4 0.00 0.00 0.00 53 1016.2
20260906144849 31 132 4.8 6.4 0.00 0.00 0.00 54 1016.2
20260906144349 31 240 4.8 6.4 0.00 0.00 0.00 54 1016.2
20260906143849 31 173 1.6 6.4 0.00 0.00 0.00 54 1016.2
20260906143348 31 181 3.2 6.4 0.00 0.00 0.00 54 1016.3
20260906142848 31 120 6.4 8.0 0.00 0.00 0.00 55 1016.3
20260906142348 31 138 3.2 4.8 0.00 0.00 0.00 56 1016.2
20260906141848 30 127 1.6 3.2 0.00 0.00 0.00 58 1016.2
20260906141349 30 106 3.2 6.4 0.00 0.00 0.00 58 1016.2
20260906140848 30 89 3.2 4.8 0.00 0.00 0.00 58 1016.2
20260906140349 30 141 3.2 4.8 0.00 0.00 0.00 57 1016.1
20260906135848 29 41 1.6 3.2 0.00 0.00 0.00 59 1016.1
20260906135348 29 135 3.2 6.4 0.00 0.00 0.00 61 1016.1
20260906134848 28 130 3.2 4.8 0.00 0.00 0.00 62 1016.1
20260906134349 28 95 1.6 3.2 0.00 0.00 0.00 63 1016.0
20260906133849 27 109 1.6 4.8 0.00 0.00 0.00 65 1016.0
20260906133348 27 72 3.2 3.2 0.00 0.00 0.00 67 1016.1
20260906132849 26 121 3.2 3.2 0.00 0.00 0.00 68 1016.1
20260906132348 26 116 4.8 4.8 0.00 0.00 0.00 70 1016.0
20260906131849 26 131 6.4 9.7 0.00 0.00 0.00 71 1016.0
20260906131348 26 167 1.6 3.2 0.00 0.00 0.00 73 1016.0
20260906130848 25 229 0.0 3.2 0.00 0.00 0.00 75 1016.0
20260906130349 25 57 1.6 3.2 0.00 0.00 0.00 76 1015.9
20260906125849 24 64 1.6 1.6 0.00 0.00 0.00 78 1016.0
20260906125348 23 22 0.0 0.0 0.00 0.00 0.00 83 1016.0
20260906124848 22 34 0.0 1.6 0.00 0.00 0.00 86 1015.9
20260906124348 21 97 0.0 0.0 0.00 0.00 0.00 88 1015.9
20260906123848 21 33 0.0 0.0 0.00 0.00 0.00 89 1015.8
20260906123348 21 360 0.0 0.0 0.00 0.00 0.00 89 1015.7
20260906122849 21 266 0.0 1.6 0.00 0.00 0.00 89 1015.6
20260906122348 21 315 0.0 0.0 0.00 0.00 0.00 89 1015.5
20260906121848 21 360 0.0 0.0 0.00 0.00 0.00 90 1015.4
20260906121348 21 279 0.0 0.0 0.00 0.00 0.00 89 1015.4
20260906120848 21 360 0.0 0.0 0.00 0.00 0.00 89 1015.4
20260906120348 21 256 1.6 1.6 0.00 0.00 0.00 89 1015.3
20260906115848 21 7 0.0 0.0 0.00 0.00 0.00 89 1015.3
20260906115348 21 360 0.0 0.0 0.00 0.00 0.00 89 1015.2
20260906114848 21 300 0.0 1.6 0.00 0.00 0.00 89 1015.2
20260906114348 21 360 0.0 0.0 0.00 0.00 0.00 89 1015.1
20260906113848 21 360 0.0 0.0 0.00 0.00 0.00 89 1015.1
20260906113349 21 343 0.0 1.6 0.00 0.00 0.00 89 1015.1
20260906112849 21 42 0.0 1.6 0.00 0.00 0.00 89 1015.1
20260906112348 21 302 0.0 1.6 0.00 0.00 0.00 88 1015.0
20260906111848 21 146 0.0 0.0 0.00 0.00 0.00 88 1015.0
20260906111348 21 360 0.0 0.0 0.00 0.00 0.00 88 1014.9
20260906110848 21 81 0.0 1.6 0.00 0.00 0.00 88 1014.9
20260906110348 21 360 0.0 0.0 0.00 0.00 0.00 88 1014.9
20260906105848 21 64 0.0 0.0 0.00 0.00 0.00 88 1014.9
20260906105349 21 45 0.0 0.0 0.00 0.00 0.00 88 1015.0
20260906104849 21 360 0.0 0.0 0.00 0.00 0.00 87 1015.0
20260906104349 21 107 0.0 0.0 0.00 0.00 0.00 87 1015.0
20260906103850 21 135 0.0 0.0 0.00 0.00 0.00 87 1015.0
20260906103348 21 360 0.0 0.0 0.00 0.00 0.00 87 1015.0
20260906102848 21 94 0.0 0.0 0.00 0.00 0.00 87 1015.0
20260906102349 21 360 0.0 0.0 0.00 0.00 0.00 87 1014.9
20260906101848 21 302 0.0 0.0 0.00 0.00 0.00 87 1014.9
20260906101348 21 359 0.0 0.0 0.00 0.00 0.00 86 1014.9
20260906100848 21 360 0.0 0.0 0.00 0.00 0.00 86 1014.9
20260906100348 21 306 1.6 1.6 0.00 0.00 0.00 86 1014.8
20260906095848 21 264 1.6 1.6 0.00 0.00 0.00 86 1014.8
20260906095349 21 34 1.6 1.6 0.00 0.00 0.00 85 1014.8
20260906094848 22 360 0.0 0.0 0.00 0.00 0.00 85 1014.8
20260906094348 22 360 0.0 0.0 0.00 0.00 0.00 85 1014.8
20260906093849 22 331 0.0 1.6 0.00 0.00 0.00 85 1014.8
20260906093348 22 41 0.0 1.6 0.00 0.00 0.00 85 1014.7
20260906092848 22 360 0.0 0.0 0.00 0.00 0.00 85 1014.8
20260906092348 22 19 1.6 1.6 0.00 0.00 0.00 85 1014.8
20260906091848 22 14 1.6 1.6 0.00 0.00 0.00 85 1014.7
20260906091348 22 360 0.0 0.0 0.00 0.00 0.00 85 1014.7
20260906090848 22 31 0.0 1.6 0.00 0.00 0.00 84 1014.7
20260906090354 22 360 0.0 0.0 0.00 0.00 0.00 84 1014.7
20260906085848 22 43 0.0 0.0 0.00 0.00 0.00 84 1014.6
20260906085349 22 360 0.0 0.0 0.00 0.00 0.00 84 1014.6
20260906084848 22 62 1.6 1.6 0.00 0.00 0.00 84 1014.6
20260906084348 22 360 0.0 0.0 0.00 0.00 0.00 83 1014.6
20260906083849 22 360 0.0 0.0 0.00 0.00 0.00 83 1014.6
20260906083350 22 265 0.0 0.0 0.00 0.00 0.00 83 1014.6
20260906082848 22 34 1.6 3.2 0.00 0.00 0.00 82 1014.6
20260906082348 22 54 1.6 1.6 0.00 0.00 0.00 82 1014.6
20260906081848 22 278 1.6 1.6 0.00 0.00 0.00 82 1014.6
20260906081348 22 20 0.0 0.0 0.00 0.00 0.00 81 1014.6
20260906080848 22 22 1.6 1.6 0.00 0.00 0.00 81 1014.5
20260906080348 22 46 1.6 1.6 0.00 0.00 0.00 81 1014.5
20260906075849 22 360 0.0 0.0 0.00 0.00 0.00 81 1014.6
20260906075348 22 90 0.0 1.6 0.00 0.00 0.00 81 1014.5
20260906074848 23 31 0.0 0.0 0.00 0.00 0.00 81 1014.5
20260906074348 23 332 0.0 1.6 0.00 0.00 0.00 80 1014.5
20260906073849 23 38 1.6 1.6 0.00 0.00 0.00 79 1014.5
20260906073348 23 28 3.2 4.8 0.00 0.00 0.00 79 1014.6
20260906072850 23 117 0.0 1.6 0.00 0.00 0.00 79 1014.7
20260906072348 23 31 3.2 3.2 0.00 0.00 0.00 79 1014.6
20260906071849 23 360 0.0 1.6 0.00 0.00 0.00 80 1014.7
20260906071348 23 27 1.6 1.6 0.00 0.00 0.00 79 1014.7
20260906070849 23 24 1.6 1.6 0.00 0.00 0.00 80 1014.6
20260906070348 23 39 0.0 1.6 0.00 0.00 0.00 81 1014.6
20260906065848 23 351 0.0 1.6 0.00 0.00 0.00 81 1014.7
20260906065348 23 94 0.0 1.6 0.00 0.00 0.00 81 1014.7
20260906064848 23 40 0.0 1.6 0.00 0.00 0.00 80 1014.8
20260906064348 23 320 0.0 0.0 0.00 0.00 0.00 80 1014.8
20260906063848 23 316 0.0 1.6 0.00 0.00 0.00 80 1014.8
20260906063348 23 296 0.0 1.6 0.00 0.00 0.00 80 1014.8
20260906062849 23 280 0.0 0.0 0.00 0.00 0.00 80 1014.8
20260906062348 23 280 0.0 1.6 0.00 0.00 0.00 79 1014.8
20260906061848 23 294 1.6 1.6 0.00 0.00 0.00 79 1014.7
20260906061348 23 338 0.0 1.6 0.00 0.00 0.00 78 1014.7
20260906060849 23 114 0.0 1.6 0.00 0.00 0.00 78 1014.8
20260906060348 23 349 0.0 1.6 0.00 0.00 0.00 78 1014.8
20260906055848 23 329 0.0 1.6 0.00 0.00 0.00 78 1014.8
20260906055348 23 250 0.0 1.6 0.00 0.00 0.00 77 1014.8
20260906054849 24 299 0.0 1.6 0.00 0.00 0.00 77 1014.8
20260906054349 24 291 0.0 1.6 0.00 0.00 0.00 76 1014.8
20260906053849 24 294 1.6 1.6 0.00 0.00 0.00 75 1014.8
20260906053348 24 326 0.0 1.6 0.00 0.00 0.00 75 1014.8
20260906052848 24 352 0.0 1.6 0.00 0.00 0.00 75 1014.8
20260906052349 24 29 1.6 1.6 0.00 0.00 0.00 75 1014.7
20260906051849 24 120 0.0 1.6 0.00 0.00 0.00 75 1014.7
20260906051348 24 311 1.6 1.6 0.00 0.00 0.00 75 1014.7
20260906050849 24 326 0.0 1.6 0.00 0.00 0.00 74 1014.7
20260906050348 25 283 1.6 3.2 0.00 0.00 0.00 74 1014.7
20260906045848 25 285 1.6 3.2 0.00 0.00 0.00 73 1014.7
20260906045351 25 47 0.0 1.6 0.00 0.00 0.00 71 1014.7
20260906044849 25 43 0.0 1.6 0.00 0.00 0.00 72 1014.7
20260906044348 25 108 0.0 1.6 0.00 0.00 0.00 72 1014.7
20260906043848 25 321 1.6 1.6 0.00 0.00 0.00 71 1014.8
20260906043348 25 296 1.6 1.6 0.00 0.00 0.00 70 1014.8
20260906042848 26 296 0.0 1.6 0.00 0.00 0.00 69 1014.8
20260906042348 26 344 0.0 1.6 0.00 0.00 0.00 69 1014.8
20260906041849 26 186 0.0 0.0 0.00 0.00 0.00 69 1014.8
20260906041349 26 20 1.6 3.2 0.00 0.00 0.00 67 1014.7
20260906040848 26 39 1.6 3.2 0.00 0.00 0.00 68 1014.7
20260906040348 26 340 0.0 0.0 0.00 0.00 0.00 69 1014.7
20260906035848 26 5 1.6 3.2 0.00 0.00 0.00 67 1014.7
20260906035349 26 93 0.0 1.6 0.00 0.00 0.00 67 1014.7
20260906034848 26 67 0.0 1.6 0.00 0.00 0.00 67 1014.6
20260906034348 26 3 3.2 3.2 0.00 0.00 0.00 67 1014.6
20260906033848 26 200 0.0 3.2 0.00 0.00 0.00 66 1014.6
20260906033348 27 331 0.0 1.6 0.00 0.00 0.00 66 1014.6
20260906032849 27 300 0.0 1.6 0.00 0.00 0.00 66 1014.6
20260906032349 27 77 0.0 1.6 0.00 0.00 0.00 64 1014.6
20260906031848 27 248 0.0 0.0 0.00 0.00 0.00 64 1014.5
20260906031419 27 15 0.0 1.6 0.00 0.00 0.00 64 1014.5
20260906030848 28 335 0.0 1.6 0.00 0.00 0.00 62 1014.4
20260906030348 28 323 1.6 1.6 0.00 0.00 0.00 61 1014.4
20260906025848 28 16 0.0 0.0 0.00 0.00 0.00 58 1014.3
20260906025348 28 51 0.0 1.6 0.00 0.00 0.00 58 1014.3
20260906024848 28 18 1.6 3.2 0.00 0.00 0.00 57 1014.2
20260906024348 28 90 1.6 3.2 0.00 0.00 0.00 58 1014.2
20260906023848 27 52 1.6 6.4 0.00 0.00 0.00 61 1014.1
20260906023348 27 77 1.6 3.2 0.00 0.00 0.00 62 1014.2
20260906022849 28 111 0.0 3.2 0.00 0.00 0.00 61 1014.1
20260906022353 28 92 1.6 3.2 0.00 0.00 0.00 62 1014.0
20260906021849 28 307 0.0 1.6 0.00 0.00 0.00 60 1014.0
20260906021349 28 91 0.0 1.6 0.00 0.00 0.00 59 1014.0
20260906020848 29 123 1.6 3.2 0.00 0.00 0.00 58 1013.9
20260906020348 29 75 0.0 1.6 0.00 0.00 0.00 58 1013.8
20260906015849 29 55 1.6 3.2 0.00 0.00 0.00 56 1013.7
20260906015348 30 62 0.0 1.6 0.00 0.00 0.00 56 1013.7
20260906014848 30 84 3.2 4.8 0.00 0.00 0.00 54 1013.7
20260906014348 30 14 0.0 1.6 0.00 0.00 0.00 54 1013.5
20260906013848 30 88 3.2 4.8 0.00 0.00 0.00 54 1013.4
20260906013348 30 72 0.0 1.6 0.00 0.00 0.00 54 1013.4
20260906012848 30 67 3.2 6.4 0.00 0.00 0.00 52 1013.4
20260906012348 31 19 0.0 1.6 0.00 0.00 0.00 53 1013.4
20260906011848 31 24 0.0 1.6 0.00 0.00 0.00 52 1013.4
20260906011348 31 15 0.0 1.6 0.00 0.00 0.00 50 1013.3
20260906010849 31 67 1.6 3.2 0.00 0.00 0.00 49 1013.3
20260906010348 31 58 1.6 3.2 0.00 0.00 0.00 48 1013.3
20260906005848 31 53 3.2 4.8 0.00 0.00 0.00 48 1013.2
20260906005349 31 30 3.2 6.4 0.00 0.00 0.00 50 1013.3
20260906004848 31 52 3.2 3.2 0.00 0.00 0.00 52 1013.3
20260906004348 31 45 3.2 3.2 0.00 0.00 0.00 52 1013.3
20260906003848 31 52 3.2 3.2 0.00 0.00 0.00 51 1013.3
20260906003349 32 51 1.6 3.2 0.00 0.00 0.00 52 1013.3
20260906002848 32 52 1.6 3.2 0.00 0.00 0.00 50 1013.3
20260906002348 32 49 1.6 1.6 0.00 0.00 0.00 51 1013.3
20260906001848 32 42 3.2 3.2 0.00 0.00 0.00 50 1013.3
20260906001348 33 61 3.2 3.2 0.00 0.00 0.00 49 1013.3
20260906000849 34 36 3.2 3.2 0.00 0.00 0.00 46 1013.2
20260906000348 35 47 1.6 3.2 0.00 0.00 0.00 44 1013.2
20260905235848 35 49 1.6 3.2 0.00 0.00 0.00 43 1013.3
20260905235349 35 52 3.2 3.2 0.00 0.00 0.00 41 1013.2
20260905234849 35 63 3.2 3.2 0.00 0.00 0.00 40 1013.1
20260905234348 35 58 3.2 6.4 0.00 0.00 0.00 40 1013.1
20260905233848 36 67 3.2 6.4 0.00 0.00 0.00 40 1013.1
20260905233349 36 82 4.8 6.4 0.00 0.00 0.00 39 1013.1
20260905232849 36 87 3.2 4.8 0.00 0.00 0.00 39 1013.1
20260905232348 36 92 4.8 6.4 0.00 0.00 0.00 38 1013.0
20260905231848 37 77 3.2 6.4 0.00 0.00 0.00 38 1013.0
20260905231348 37 47 6.4 8.0 0.00 0.00 0.00 36 1013.0
20260905230848 37 54 3.2 4.8 0.00 0.00 0.00 35 1012.9
20260905230348 38 91 4.8 8.0 0.00 0.00 0.00 36 1013.0
20260905225848 38 80 4.8 6.4 0.00 0.00 0.00 34 1012.9
20260905225353 38 81 3.2 6.4 0.00 0.00 0.00 33 1012.9
20260905224848 38 77 3.2 4.8 0.00 0.00 0.00 33 1012.9
20260905224348 38 74 6.4 8.0 0.00 0.00 0.00 33 1012.8
20260905223848 38 98 6.4 8.0 0.00 0.00 0.00 32 1012.8
20260905223348 38 74 3.2 3.2 0.00 0.00 0.00 31 1012.9
20260905222848 38 324 3.2 6.4 0.00 0.00 0.00 32 1012.9
20260905222349 38 206 3.2 3.2 0.00 0.00 0.00 32 1012.9
20260905221848 38 320 1.6 3.2 0.00 0.00 0.00 33 1012.9
20260905221349 38 292 3.2 3.2 0.00 0.00 0.00 31 1013.0
20260905220848 38 177 1.6 3.2 0.00 0.00 0.00 31 1013.0
20260905220349 38 106 4.8 8.0 0.00 0.00 0.00 31 1013.0
20260905215848 38 73 1.6 3.2 0.00 0.00 0.00 31 1013.1
20260905215348 38 338 1.6 4.8 0.00 0.00 0.00 31 1013.1
20260905214848 38 27 1.6 3.2 0.00 0.00 0.00 31 1013.2
20260905214348 37 42 3.2 6.4 0.00 0.00 0.00 32 1013.1
20260905213849 37 108 3.2 6.4 0.00 0.00 0.00 33 1013.2
20260905213348 36 110 4.8 6.4 0.00 0.00 0.00 34 1013.2
20260905212852 36 68 3.2 3.2 0.00 0.00 0.00 37 1013.3
20260905212349 36 22 3.2 3.2 0.00 0.00 0.00 37 1013.4
20260905211848 36 36 3.2 3.2 0.00 0.00 0.00 36 1013.4
20260905211348 36 60 3.2 4.8 0.00 0.00 0.00 36 1013.5
20260905210848 37 41 3.2 3.2 0.00 0.00 0.00 37 1013.7
20260905210348 37 112 4.8 6.4 0.00 0.00 0.00 36 1013.7
20260905205848 37 90 4.8 6.4 0.00 0.00 0.00 35 1013.8
20260905205348 38 78 4.8 6.4 0.00 0.00 0.00 33 1013.8
20260905204848 38 93 6.4 9.7 0.00 0.00 0.00 34 1013.8
20260905204351 38 63 4.8 6.4 0.00 0.00 0.00 34 1014.0
20260905203848 37 160 3.2 4.8 0.00 0.00 0.00 36 1014.0
20260905203348 38 114 8.0 9.7 0.00 0.00 0.00 34 1014.0
20260905202852 38 108 8.0 12.9 0.00 0.00 0.00 34 1014.1
20260905202348 38 96 4.8 8.0 0.00 0.00 0.00 34 1014.1
20260905201849 38 320 4.8 6.4 0.00 0.00 0.00 34 1014.2
20260905201349 38 54 1.6 4.8 0.00 0.00 0.00 34 1014.2
20260905200848 38 55 4.8 11.3 0.00 0.00 0.00 34 1014.3
20260905200348 37 191 4.8 6.4 0.00 0.00 0.00 35 1014.3
20260905195848 37 90 6.4 6.4 0.00 0.00 0.00 36 1014.4
20260905195349 37 155 1.6 4.8 0.00 0.00 0.00 36 1014.4
20260905194848 37 305 4.8 6.4 0.00 0.00 0.00 36 1014.5
20260905194348 37 322 1.6 3.2 0.00 0.00 0.00 37 1014.6
20260905193849 36 40 3.2 4.8 0.00 0.00 0.00 39 1014.6
20260905193348 37 86 4.8 6.4 0.00 0.00 0.00 38 1014.7
20260905192849 37 83 4.8 8.0 0.00 0.00 0.00 37 1014.7
20260905192349 37 166 4.8 9.7 0.00 0.00 0.00 37 1014.7
20260905191848 37 134 4.8 9.7 0.00 0.00 0.00 37 1014.8
20260905191348 37 215 4.8 9.7 0.00 0.00 0.00 36 1014.9
20260905190848 37 153 3.2 4.8 0.00 0.00 0.00 36 1015.0
20260905190348 37 131 9.7 12.9 0.00 0.00 0.00 36 1015.1
20260905185848 37 109 9.7 12.9 0.00 0.00 0.00 34 1015.1
20260905185348 37 32 3.2 8.0 0.00 0.00 0.00 36 1015.2
20260905184848 37 103 9.7 14.5 0.00 0.00 0.00 38 1015.3
20260905184348 37 60 6.4 9.7 0.00 0.00 0.00 37 1015.4
20260905183848 37 64 3.2 6.4 0.00 0.00 0.00 37 1015.4
20260905183348 36 118 4.8 6.4 0.00 0.00 0.00 38 1015.4
20260905182849 37 153 4.8 6.4 0.00 0.00 0.00 39 1015.5
20260905182348 37 296 4.8 9.7 0.00 0.00 0.00 38 1015.6
20260905181848 36 71 6.4 11.3 0.00 0.00 0.00 40 1015.6
20260905181349 36 286 4.8 6.4 0.00 0.00 0.00 38 1015.7
20260905180848 37 82 6.4 9.7 0.00 0.00 0.00 38 1015.8
20260905180348 36 292 3.2 6.4 0.00 0.00 0.00 40 1015.8
20260905175849 37 291 8.0 9.7 0.00 0.00 0.00 39 1015.9
20260905175348 37 72 1.6 4.8 0.00 0.00 0.00 40 1016.0
20260905174848 36 92 3.2 8.0 0.00 0.00 0.00 40 1016.0